Regional Weather Roundup
Issued by NWS

Home | Current Version | Previous Version | Text Only | Print | Product List | Glossary Off
Versions: 1 2 3 4 5 6 7 8 9 10 11 12 13 14 15 16 17 18 19 20 21 22 23 24 25 26 27

000
ASUS45 KBOU 231110
RWRCO

WEATHER ROUNDUP FOR COLORADO
NATIONAL WEATHER SERVICE DENVER/BOULDER CO
500 AM MDT WED MAY 23 2018

NOTE: "FAIR" INDICATES FEW OR NO CLOUDS BELOW 12000 FEET WITH NO
SIGNIFICANT WEATHER AND/OR OBSTRUCTIONS TO VISIBILITY.

COZ001>005-013-030-031-231200-
...NORTHWEST COLORADO...

CITY           SKY/WX    TMP DP  RH WIND       PRES   REMARKS
CRAIG          FAIR      35  34  96 CALM      30.06R
HAYDEN         MOCLDY    41  38  89 E10       30.08R
MEEKER         FAIR      38  34  85 E5        30.06R
RANGELY        FAIR      39  38  94 CALM      30.02S
RABBIT EARS PA FAIR      34  34 100 CALM      30.24R
STEAMBOAT SPGS FAIR      36  36 100 CALM      30.09S
WALDEN         FAIR      34  32  93 SE3       30.17R
$$

COZ006>008-011-231200-
...WEST CENTRAL VALLEYS...

CITY           SKY/WX    TMP DP  RH WIND       PRES   REMARKS
GRAND JUNCTION FAIR      47  42  83 E5        29.97R
MONTROSE       FAIR      41  36  82 SE7       30.04R
EAGLE          FAIR      38  35  89 E5        30.14R
RIFLE          FAIR      42  38  85 CALM      30.03S
DELTA          FAIR      47  41  81 N7        30.02R
NUCLA          NOT AVBL
$$

COZ017>023-064>068-231200-
...SOUTHWEST COLORADO...

CITY           SKY/WX    TMP DP  RH WIND       PRES   REMARKS
DURANGO        FAIR      36  27  69 CALM      30.09R
CORTEZ         FAIR      37  27  67 E5        30.05R
PAGOSA SPRINGS FAIR      40  28  62 CALM      30.15R
TELLURIDE      FAIR      42  26  54 SE7       30.20S
WOLF CREEK PAS MOCLDY    34  27  75 S7        30.39R WCI  28
$$

COZ009-010-012-014-032>034-037-058>063-231200-
...CENTRAL COLORADO...

CITY           SKY/WX    TMP DP  RH WIND       PRES   REMARKS
ASPEN          FAIR      35  31  85 S5        30.12R WCI  31
BUENA VISTA    FAIR      38  33  80 W6        30.17S
COPPER MTN     FAIR      41  23  48 SE8       30.34R
BERTHOUD PASS  FAIR      32  23  69 S14       30.37R WCI  22
COTTONWOOD PAS FAIR      48  30  49 W3        30.25R
GUNNISON       MOCLDY    38  31  76 CALM      30.17R
GRANBY         FAIR      33  33  96 CALM      30.19R
KREMMLING      CLOUDY    43  41  93 CALM      30.17R
LEADVILLE      FAIR      30  27  88 CALM      30.23R
MONARCH PASS   FAIR      37  25  60 MISG      30.45R
SALIDA         FAIR      44  35  70 W6        30.23R
SUNLIGHT       CLOUDY    36  28  75 SE3       30.28S
WILKERSON PASS FAIR      39  30  70 SW6       30.34R
$$

COZ069>075-231200-
...SAN LUIS VALLEY/SANGRE DE CRISTO MOUNTAINS...

CITY           SKY/WX    TMP DP  RH WIND       PRES   REMARKS
ALAMOSA        FAIR      41  39  93 CALM      30.13R
DEL NORTE      FAIR      41  29  60 W14       30.16R
LA VETA PASS   FAIR      43  34  70 SW15G22   30.38R
SAGUACHE       NOT AVBL
$$

COZ035-036-038>040-231200-
...NORTHERN COLORADO FRONT RANGE...

CITY           SKY/WX    TMP DP  RH WIND       PRES   REMARKS
DENVER INTL AP FAIR      52  44  74 SW7       30.03R
AURORA         PTCLDY    48  46  93 S8        30.05R
FRONT RANGE AP FAIR      50  46  84 SW6       30.05R
ERIE MUNI ARPT FAIR      50  47  90 CALM      30.06S
BOULDER MUN AP FAIR      54  41  62 S3        30.01S
CENTENNIAL     FAIR      46  44  93 E3        30.05R
BROOMFIELD     FAIR      52  45  76 CALM      30.03S
FORT COLLINS   FAIR      48  45  89 SW5       30.01S
LONGMONT       FAIR      48  45  87 CALM      30.03R
$$

COZ041-046-047-076>085-087-088-231200-
...PIKES PEAK/PALMER DIVIDE AND SOUTHERN FOOTHILLS...

CITY           SKY/WX    TMP DP  RH WIND       PRES   REMARKS
COLO. SPRINGS  FAIR      54  44  69 N10       30.07R
A. F. ACADEMY  FAIR      45  42  90 N8        30.08R
SCHRIEVER AFB  NOT AVBL
CHEYENNE MTN   FAIR      55  41  58 NW9       30.05R
ELLICOTT         N/A    N/A N/A N/A NE7       30.04R
FALCON         FAIR      51  41  68 N9G16     30.10R
FORT CARSON    FAIR      53  43  70 N15       30.03R
LIMON          FAIR      51  46  83 W5        30.02R
MONUMENT HILL  FAIR      41  37  87 W5        30.12R
CANON CITY     FAIR      52  39  62 W6        30.03R
WALSENBURG     FAIR      48  41  76 NW7       30.06S
TRINIDAD       FAIR      63  48  58 S9G18     30.04R
$$

COZ042>045-048>051-090-091-231200-
...NORTHEAST COLORADO...

CITY           SKY/WX    TMP DP  RH WIND       PRES   REMARKS
GREELEY ARPT   FAIR      50  48  93 CALM      30.01R
AKRON          FAIR      53  50  89 W9        29.98R
BURLINGTON     FAIR      63  51  65 S20G29    29.96R
WRAY           FAIR      59  52  77 W3        29.96R
YUMA           FAIR      54  41  62 S8        29.96S
STERLING       FAIR      54  52  94 CALM      29.95R
HOLYOKE        FAIR      61  54  77 S8        29.94S
FORT MORGAN    FAIR      53  49  86 NW5       30.00S
$$

COZ086-089-092>099-231200-
...SOUTHEAST COLORADO...

CITY           SKY/WX    TMP DP  RH WIND       PRES   REMARKS
PUEBLO         FAIR      56  44  64 N7        29.99R
LA JUNTA       FAIR      62  49  62 SE7       29.97S
LAMAR          FAIR      64  49  57 S22G32    29.94F
SPRINGFIELD      N/A     56  53  90 S18       30.06R
$$




USA.gov is the U.S. government's official web portal to all federal, state and local government web resources and services.